Regional Weather Roundup
Issued by NWS

Home | Current Version | Previous Version | Graphics & Text | Print | Product List | Glossary On
Versions: 1 2 3 4 5 6 7 8 9 10 11 12 13 14 15 16 17 18 19 20 21 22 23 24 25 26 27 28 29 30 31 32 33 34 35 36 37 38 39 40 41 42 43 44 45 46 47 48 49 50
000
ASUS45 KCYS 291110
RWRWY

WYOMING REGIONAL WEATHER ROUNDUP
NATIONAL WEATHER SERVICE CHEYENNE WY
500 AM MDT FRI MAY 29 2015

NOTE:  "FAIR" INDICATES FEW OR NO CLOUDS BELOW 12,000 FEET
WITH NO SIGNIFICANT WEATHER AND/OR OBSTRUCTIONS TO VISIBILITY.

WYZ001-291200-
YELLOWSTONE NATIONAL PARK

CITY           SKY/WX    TMP DP  RH WIND       PRES   REMARKS
LK YELLOWSTONE   N/A     31  29  92 CALM      30.34R
W YELLOWSTONE  NOT AVBL

$$
WYZ002>013-054>058-071-098>099-291200-
NORTHERN WYOMING

CITY           SKY/WX    TMP DP  RH WIND       PRES   REMARKS
JACKSON        CLOUDY    37  37 100 CALM      30.28S VSB 1/4
CODY           CLOUDY    48  46  93 N7        30.26R
GREYBULL       LGT RAIN  52  49  89 N12       30.20R
WORLAND        CLOUDY    51  48  89 NW8       30.20R
SHERIDAN       HVY RAIN  49  47  93 NW10      30.23R FOG
BUFFALO        LGT RAIN  47  43  86 NW10      30.21R
GILLETTE       RAIN      48  46  93 N17       30.18R
HULETT         RAIN      46  45  93 N13G20    30.17R
NEWCASTLE      FAIR      52  45  76 NW13      30.11R

$$
WYZ014>020-022>026-101>103-291200-
CENTRAL WYOMING

CITY           SKY/WX    TMP DP  RH WIND       PRES   REMARKS
BIG PINEY      FAIR      33  31  92 NW6       30.28R WCI  28
PINEDALE       FAIR      32  32 100 NW3       30.29R
DUBOIS         FAIR      36  32  87 NW5       30.26F WCI  32
LANDER         LGT RAIN  47  44  90 NW6       30.23R
RIVERTON       CLOUDY    48  45  89 SW3       30.24S
CASPER         LGT RAIN  46  44  93 W7        30.20R
DOUGLAS        CLOUDY    51  47  86 NW8       30.16S

$$
WYZ021-027>030-104>119-291200-
SOUTHERN WYOMING

CITY           SKY/WX    TMP DP  RH WIND       PRES   REMARKS
EVANSTON       FAIR      38  34  85 SE7       30.27R WCI  33
KEMMERER       FAIR      36  34  93 NW7       30.28S WCI  30
FORT BRIDGER   SUNNY     45  39  81 W3        30.30R
ROCK SPRINGS   CLOUDY    42  36  79 CALM      30.27R
DIXON          CLOUDY    45  41  87 CALM      30.27R
RAWLINS        LGT RAIN  41  38  89 NW12      30.25R
SARATOGA       CLOUDY    43  39  87 NW3       30.26R
LARAMIE        CLOUDY    44  39  82 E5        30.21R
CHEYENNE       FAIR      48  40  73 W6        30.16S
TORRINGTON     FAIR      53  48  83 NW10      30.09S
PINE BLUFFS    FAIR      45  43  93 NW8       30.14R

$$


USA.gov is the U.S. government's official web portal to all federal, state and local government web resources and services.